Flag for Luxembourg Weather past 2 weeks in Luxembourg, Luxembourg

Now
70 °F

Passing clouds.


Feels Like: 70 °F
Forecast: 50 / 70 °F
Wind: 7 mph from Northeast

Location: Luxembourg Airport


UV Index: 3 (Moderate)

Visibility: N/A


Pressure: 30.01 "Hg

Humidity: 46%

Dew point: 48 °F

Location of LuxembourgLocation

Historic Weather in Luxembourg

°F

Luxembourg temperature yesterday

Maximum temperature yesterday: 68 °F (at 2:50 PM)
Minimum temperature yesterday: 46 °F (at 5:50 AM)
Average temperature yesterday: 58 °F

Past Weeks' High & Low Weather Summary

 TemperatureHumidityPressure
High70 °F (Apr 24, 2:50 PM)100% (Apr 22, 4:20 AM)30.36 "Hg (Apr 22, 4:20 AM)
Low34 °F (Apr 15, 6:50 AM)27% (Apr 17, 5:20 PM)29.59 "Hg (Apr 21, 1:50 PM)
Average52 °F63%30.02 "Hg
* Reported Apr 9 3:20 PM — Apr 24 3:20 PM, Luxembourg, Weather by CustomWeather, © 2014

Note: Actual official high and low records may vary slightly from our data, if they occured in-between our weather recording intervals... More about our weather records

Advertising

Historic Weather Conditions — Data for Previous 24 hours

 ConditionsComfort  
Time TempWeatherWind HumidityBarometerVisibility
3:20 PM
Apr 24
68 °FPassing clouds.7 mph43%30.01 "HgN/A
2:50 PM70 °FPassing clouds.6 mph40%30.01 "HgN/A
2:20 PM68 °FScattered clouds.1 mph46%30.04 "HgN/A
1:50 PM66 °FScattered clouds.3 mph49%30.04 "HgN/A
1:20 PM68 °FPassing clouds.5 mph46%30.04 "HgN/A
12:50 PM68 °FPassing clouds.2 mph49%30.07 "HgN/A
12:20 PM66 °FPassing clouds.3 mph52%30.07 "HgN/A
11:50 AM66 °FPassing clouds.2 mph56%30.07 "HgN/A
11:20 AM64 °FPassing clouds.2 mph56%30.09 "HgN/A
10:50 AM63 °FPassing clouds.6 mph64%30.09 "HgN/A
10:20 AM63 °FPassing clouds.5 mph64%30.09 "HgN/A
9:50 AM61 °FPassing clouds.6 mph63%30.09 "HgN/A
9:20 AM59 °FSunny.3 mph68%30.09 "Hg10 mi
8:50 AM59 °FPassing clouds.5 mph68%30.09 "HgN/A
8:20 AM55 °FSunny.2 mph77%30.09 "Hg10 mi
7:50 AM52 °FSunny.3 mph88%30.09 "Hg10 mi
7:20 AM52 °FClear.2 mph82%30.09 "Hg10 mi
6:50 AM52 °FClear.6 mph82%30.09 "Hg10 mi
6:20 AM52 °FClear.3 mph82%30.09 "Hg10 mi
5:50 AM54 °FClear.5 mph77%30.07 "Hg10 mi
5:20 AM55 °FClear.5 mph72%30.07 "Hg10 mi
4:50 AM55 °FClear.7 mph72%30.07 "Hg10 mi
4:20 AM55 °FCool.6 mph72%30.09 "HgN/A
3:50 AM55 °FCool.6 mph72%30.09 "HgN/A
3:20 AM55 °FCool.7 mph72%30.09 "HgN/A
2:50 AM54 °FCool.7 mph77%30.09 "HgN/A
2:20 AM55 °FCool.6 mph72%30.09 "HgN/A
1:50 AM55 °FClear.5 mph72%30.09 "Hg10 mi
1:20 AM57 °FClear.7 mph67%30.09 "Hg10 mi
12:50 AM57 °FClear.2 mph67%30.09 "Hg10 mi
12:20 AM57 °FPassing clouds.5 mph67%30.09 "HgN/A
11:50 PM
Apr 23
57 °FClear.5 mph67%30.09 "Hg10 mi
11:20 PM57 °FClear.3 mph67%30.09 "Hg10 mi
10:50 PM57 °FClear.3 mph67%30.09 "Hg10 mi
10:20 PM59 °FPassing clouds.3 mph63%30.09 "HgN/A
9:50 PM59 °FPassing clouds.6 mph63%30.09 "HgN/A
9:20 PM59 °FSprinkles. Scattered clouds.6 mph63%30.09 "HgN/A
8:50 PM61 °FPassing clouds.7 mph55%30.09 "HgN/A
8:20 PM61 °FScattered clouds.7 mph55%30.07 "HgN/A
7:50 PM63 °FScattered clouds.3 mph52%30.07 "HgN/A
7:20 PM63 °FScattered clouds.2 mph52%30.07 "HgN/A
6:50 PM64 °FScattered clouds.2 mph43%30.07 "HgN/A
6:20 PM64 °FScattered clouds.2 mph46%30.07 "HgN/A
5:50 PM66 °FScattered clouds.3 mph40%30.07 "HgN/A
5:20 PM68 °FMild.1 mph38%30.07 "HgN/A
4:50 PM66 °FScattered clouds.5 mph43%30.07 "HgN/A
4:20 PM66 °FPassing clouds.5 mph40%30.07 "HgN/A
Weather by CustomWeather, © 2014

See weather overview